Location: Jetmore Oil Field
(38.1181°N, 99.9337°W)
Time: 09:24:45
(UTC+00:00)

PSLV R/B - Pass Details

Date: 17 February 2020
Orbit: 505 x 578 km, 97.8° (Epoch: 09 April)

Event Time Altitude Azimuth Distance (km) Brightness Sun altitude
Rises 11:48:02 0° 12° (NNE) 2,624 7.4 -20.3°
Reaches altitude 10° 11:50:07 10° 13° (NNE) 1,740 6.5 -19.9°
Maximum altitude 11:53:51 86° 101° (E) 525 3.6 -19.1°
Drops below altitude 10° 11:57:39 10° 192° (SSW) 1,759 6.3 -18.4°
Sets 11:59:46 0° 193° (SSW) 2,656 7.2 -18.0°
